owner,sensor,date,latitude,longitude,vertical_datum,sea_water_temperature,qcFlag
Anadarko,ioos:station:wmo:42379:1,2020-01-01T00:05:00Z,27.3620,-90.1810,47.2,75.0,11144222
Anadarko,ioos:station:wmo:42379:1,2020-01-01T00:25:00Z,27.3620,-90.1810,47.2,75.2,11144222
Anadarko,ioos:station:wmo:42379:1,2020-01-01T00:45:00Z,27.3620,-90.1810,47.2,75.0,11144222
Anadarko,ioos:station:wmo:42379:1,2020-01-01T01:05:00Z,27.3620,-90.1810,47.2,74.8,11144222
Anadarko,ioos:station:wmo:42379:1,2020-01-01T01:25:00Z,27.3620,-90.1810,47.2,75.0,11144222
Anadarko,ioos:station:wmo:42379:1,2020-01-01T01:45:00Z,27.3620,-90.1810,47.2,74.8,11144222
Anadarko,ioos:station:wmo:42379:1,2020-01-01T02:05:00Z,27.3620,-90.1810,47.2,74.9,11144222
Anadarko,ioos:station:wmo:42379:1,2020-01-01T02:25:00Z,27.3620,-90.1810,47.2,75.1,11144222
Anadarko,ioos:station:wmo:42379:1,2020-01-01T02:45:00Z,27.3620,-90.1810,47.2,75.3,11144222
Anadarko,ioos:station:wmo:42379:1,2020-01-01T03:05:00Z,27.3620,-90.1810,47.2,75.3,11144222
Anadarko,ioos:station:wmo:42379:1,2020-01-01T03:25:00Z,27.3620,-90.1810,47.2,75.2,11144222
Anadarko,ioos:station:wmo:42379:1,2020-01-01T03:45:00Z,27.3620,-90.1810,47.2,75.1,11144222
Anadarko,ioos:station:wmo:42379:1,2020-01-01T04:05:00Z,27.3620,-90.1810,47.2,75.1,11144222
Anadarko,ioos:station:wmo:42379:1,2020-01-01T04:25:00Z,27.3620,-90.1810,47.2,74.9,11144222
Anadarko,ioos:station:wmo:42379:1,2020-01-01T04:45:00Z,27.3620,-90.1810,47.2,75.1,11144222
Anadarko,ioos:station:wmo:42379:1,2020-01-01T05:05:00Z,27.3620,-90.1810,47.2,75.1,11144222
Anadarko,ioos:station:wmo:42379:1,2020-01-01T05:25:00Z,27.3620,-90.1810,47.2,75.4,11144222
Anadarko,ioos:station:wmo:42379:1,2020-01-01T05:45:00Z,27.3620,-90.1810,47.2,75.2,11144222
Anadarko,ioos:station:wmo:42379:1,2020-01-01T06:05:00Z,27.3620,-90.1810,47.2,75.2,11144222
Anadarko,ioos:station:wmo:42379:1,2020-01-01T06:25:00Z,27.3620,-90.1810,47.2,75.0,11144222
Anadarko,ioos:station:wmo:42379:1,2020-01-01T06:45:00Z,27.3620,-90.1810,47.2,74.9,11144222
Anadarko,ioos:station:wmo:42379:1,2020-01-01T07:05:00Z,27.3620,-90.1810,47.2,75.1,11144222
Anadarko,ioos:station:wmo:42379:1,2020-01-01T07:25:00Z,27.3620,-90.1810,47.2,75.0,11144222
Anadarko,ioos:station:wmo:42379:1,2020-01-01T07:45:00Z,27.3620,-90.1810,47.2,75.2,11144222
Anadarko,ioos:station:wmo:42379:1,2020-01-01T08:05:00Z,27.3620,-90.1810,47.2,75.1,11144222
Anadarko,ioos:station:wmo:42379:1,2020-01-01T08:25:00Z,27.3620,-90.1810,47.2,74.8,11144222
Anadarko,ioos:station:wmo:42379:1,2020-01-01T08:45:00Z,27.3620,-90.1810,47.2,75.1,11144222
Anadarko,ioos:station:wmo:42379:1,2020-01-01T09:05:00Z,27.3620,-90.1810,47.2,75.1,11144222
Anadarko,ioos:station:wmo:42379:1,2020-01-01T09:25:00Z,27.3620,-90.1810,47.2,75.1,11144222
Anadarko,ioos:station:wmo:42379:1,2020-01-01T09:45:00Z,27.3620,-90.1810,47.2,75.1,11144222
Anadarko,ioos:station:wmo:42379:1,2020-01-01T10:05:00Z,27.3620,-90.1810,47.2,75.0,11144222
Anadarko,ioos:station:wmo:42379:1,2020-01-01T10:25:00Z,27.3620,-90.1810,47.2,75.0,11144222
Anadarko,ioos:station:wmo:42379:1,2020-01-01T10:45:00Z,27.3620,-90.1810,47.2,75.0,11144222
Anadarko,ioos:station:wmo:42379:1,2020-01-01T11:05:00Z,27.3620,-90.1810,47.2,74.9,11144222
Anadarko,ioos:station:wmo:42379:1,2020-01-01T11:25:00Z,27.3620,-90.1810,47.2,75.3,11144222
Anadarko,ioos:station:wmo:42379:1,2020-01-01T11:45:00Z,27.3620,-90.1810,47.2,75.3,11144222
Anadarko,ioos:station:wmo:42379:1,2020-01-01T12:04:00Z,27.3620,-90.1810,47.2,75.6,11144222
Anadarko,ioos:station:wmo:42379:1,2020-01-01T12:24:00Z,27.3620,-90.1810,47.2,75.7,11144222
Anadarko,ioos:station:wmo:42379:1,2020-01-01T12:44:00Z,27.3620,-90.1810,47.2,75.2,11144222
Anadarko,ioos:station:wmo:42379:1,2020-01-01T13:04:00Z,27.3620,-90.1810,47.2,75.2,11144222
Anadarko,ioos:station:wmo:42379:1,2020-01-01T13:24:00Z,27.3620,-90.1810,47.2,75.2,11144222
Anadarko,ioos:station:wmo:42379:1,2020-01-01T13:44:00Z,27.3620,-90.1810,47.2,75.3,11144222
Anadarko,ioos:station:wmo:42379:1,2020-01-01T14:04:00Z,27.3620,-90.1810,47.2,75.4,11144222
Anadarko,ioos:station:wmo:42379:1,2020-01-01T14:23:00Z,27.3620,-90.1810,47.2,75.4,11144222
Anadarko,ioos:station:wmo:42379:1,2020-01-01T14:43:00Z,27.3620,-90.1810,47.2,75.0,11144222
Anadarko,ioos:station:wmo:42379:1,2020-01-01T15:03:00Z,27.3620,-90.1810,47.2,75.1,11144222
Anadarko,ioos:station:wmo:42379:1,2020-01-01T15:23:00Z,27.3620,-90.1810,47.2,75.0,11144222
Anadarko,ioos:station:wmo:42379:1,2020-01-01T15:43:00Z,27.3620,-90.1810,47.2,75.0,11144222
Anadarko,ioos:station:wmo:42379:1,2020-01-01T16:02:00Z,27.3620,-90.1810,47.2,75.1,11144222
Anadarko,ioos:station:wmo:42379:1,2020-01-01T16:22:00Z,27.3620,-90.1810,47.2,75.3,11144222
Anadarko,ioos:station:wmo:42379:1,2020-01-01T16:42:00Z,27.3620,-90.1810,47.2,75.5,11144222
Anadarko,ioos:station:wmo:42379:1,2020-01-01T17:02:00Z,27.3620,-90.1810,47.2,75.2,11144222
Anadarko,ioos:station:wmo:42379:1,2020-01-01T17:22:00Z,27.3620,-90.1810,47.2,75.3,11144222
Anadarko,ioos:station:wmo:42379:1,2020-01-01T17:42:00Z,27.3620,-90.1810,47.2,75.3,11144222
Anadarko,ioos:station:wmo:42379:1,2020-01-01T18:02:00Z,27.3620,-90.1810,47.2,75.1,11144222
Anadarko,ioos:station:wmo:42379:1,2020-01-01T18:22:00Z,27.3620,-90.1810,47.2,75.1,11144222
Anadarko,ioos:station:wmo:42379:1,2020-01-01T18:42:00Z,27.3620,-90.1810,47.2,75.2,11144222
Anadarko,ioos:station:wmo:42379:1,2020-01-01T19:02:00Z,27.3620,-90.1810,47.2,75.1,11144222
Anadarko,ioos:station:wmo:42379:1,2020-01-01T19:22:00Z,27.3620,-90.1810,47.2,75.3,11144222
Anadarko,ioos:station:wmo:42379:1,2020-01-01T19:42:00Z,27.3620,-90.1810,47.2,75.4,11144222
Anadarko,ioos:station:wmo:42379:1,2020-01-01T20:02:00Z,27.3620,-90.1810,47.2,75.2,11144222
Anadarko,ioos:station:wmo:42379:1,2020-01-01T20:22:00Z,27.3620,-90.1810,47.2,75.4,11144222
Anadarko,ioos:station:wmo:42379:1,2020-01-01T20:42:00Z,27.3620,-90.1810,47.2,75.5,11144222
Anadarko,ioos:station:wmo:42379:1,2020-01-01T21:02:00Z,27.3620,-90.1810,47.2,75.4,11144222
Anadarko,ioos:station:wmo:42379:1,2020-01-01T21:22:00Z,27.3620,-90.1810,47.2,75.3,11144222
Anadarko,ioos:station:wmo:42379:1,2020-01-01T21:42:00Z,27.3620,-90.1810,47.2,75.1,11144222
Anadarko,ioos:station:wmo:42379:1,2020-01-01T22:02:00Z,27.3620,-90.1810,47.2,75.3,11144222
Anadarko,ioos:station:wmo:42379:1,2020-01-01T22:22:00Z,27.3620,-90.1810,47.2,75.2,11144222
Anadarko,ioos:station:wmo:42379:1,2020-01-01T22:41:00Z,27.3620,-90.1810,47.2,75.2,11144222
Anadarko,ioos:station:wmo:42379:1,2020-01-01T23:01:00Z,27.3620,-90.1810,47.2,75.1,11144222
Anadarko,ioos:station:wmo:42379:1,2020-01-01T23:21:00Z,27.3620,-90.1810,47.2,75.4,11144222
Anadarko,ioos:station:wmo:42379:1,2020-01-01T23:41:00Z,27.3620,-90.1810,47.2,75.3,11144222
Anadarko,ioos:station:wmo:42379:1,2020-01-02T00:01:00Z,27.3620,-90.1810,47.2,74.8,11144222
Anadarko,ioos:station:wmo:42379:1,2020-01-02T00:21:00Z,27.3620,-90.1810,47.2,75.4,11144222
Anadarko,ioos:station:wmo:42379:1,2020-01-02T00:41:00Z,27.3620,-90.1810,47.2,75.3,11144222
Anadarko,ioos:station:wmo:42379:1,2020-01-02T01:01:00Z,27.3620,-90.1810,47.2,75.6,11144222
Anadarko,ioos:station:wmo:42379:1,2020-01-02T01:21:00Z,27.3620,-90.1810,47.2,75.3,11144222
Anadarko,ioos:station:wmo:42379:1,2020-01-02T01:41:00Z,27.3620,-90.1810,47.2,75.5,11144222
Anadarko,ioos:station:wmo:42379:1,2020-01-02T02:01:00Z,27.3620,-90.1810,47.2,75.4,11144222
Anadarko,ioos:station:wmo:42379:1,2020-01-02T02:21:00Z,27.3620,-90.1810,47.2,75.2,11144222
Anadarko,ioos:station:wmo:42379:1,2020-01-02T02:40:00Z,27.3620,-90.1810,47.2,75.3,11144222
Anadarko,ioos:station:wmo:42379:1,2020-01-02T03:00:00Z,27.3620,-90.1810,47.2,75.4,11144222
Anadarko,ioos:station:wmo:42379:1,2020-01-02T03:20:00Z,27.3620,-90.1810,47.2,74.7,11144222
Anadarko,ioos:station:wmo:42379:1,2020-01-02T03:40:00Z,27.3620,-90.1810,47.2,75.3,11144222
Anadarko,ioos:station:wmo:42379:1,2020-01-02T04:00:00Z,27.3620,-90.1810,47.2,75.4,11144222
Anadarko,ioos:station:wmo:42379:1,2020-01-02T04:20:00Z,27.3620,-90.1810,47.2,75.4,11144222
Anadarko,ioos:station:wmo:42379:1,2020-01-02T04:40:00Z,27.3620,-90.1810,47.2,75.5,11144222
Anadarko,ioos:station:wmo:42379:1,2020-01-02T05:00:00Z,27.3620,-90.1810,47.2,75.6,11144222
Anadarko,ioos:station:wmo:42379:1,2020-01-02T05:20:00Z,27.3620,-90.1810,47.2,75.4,11144222
Anadarko,ioos:station:wmo:42379:1,2020-01-02T05:40:00Z,27.3620,-90.1810,47.2,75.4,11144222
Anadarko,ioos:station:wmo:42379:1,2020-01-02T06:00:00Z,27.3620,-90.1810,47.2,75.7,11144222
Anadarko,ioos:station:wmo:42379:1,2020-01-02T06:20:00Z,27.3620,-90.1810,47.2,75.6,11144222
Anadarko,ioos:station:wmo:42379:1,2020-01-02T06:40:00Z,27.3620,-90.1810,47.2,75.6,11144222
Anadarko,ioos:station:wmo:42379:1,2020-01-02T07:00:00Z,27.3620,-90.1810,47.2,75.1,11144222
Anadarko,ioos:station:wmo:42379:1,2020-01-02T07:20:00Z,27.3620,-90.1810,47.2,74.8,11144222
Anadarko,ioos:station:wmo:42379:1,2020-01-02T07:40:00Z,27.3620,-90.1810,47.2,75.2,11144222
Anadarko,ioos:station:wmo:42379:1,2020-01-02T08:00:00Z,27.3620,-90.1810,47.2,75.0,11144222
Anadarko,ioos:station:wmo:42379:1,2020-01-02T08:20:00Z,27.3620,-90.1810,47.2,75.0,11144222
Anadarko,ioos:station:wmo:42379:1,2020-01-02T08:40:00Z,27.3620,-90.1810,47.2,74.9,11144222
Anadarko,ioos:station:wmo:42379:1,2020-01-02T09:00:00Z,27.3620,-90.1810,47.2,75.0,11144222
Anadarko,ioos:station:wmo:42379:1,2020-01-02T09:20:00Z,27.3620,-90.1810,47.2,75.0,11144222
Anadarko,ioos:station:wmo:42379:1,2020-01-02T09:40:00Z,27.3620,-90.1810,47.2,74.9,11144222
Anadarko,ioos:station:wmo:42379:1,2020-01-02T10:00:00Z,27.3620,-90.1810,47.2,75.0,11144222
Anadarko,ioos:station:wmo:42379:1,2020-01-02T10:20:00Z,27.3620,-90.1810,47.2,74.8,11144222
Anadarko,ioos:station:wmo:42379:1,2020-01-02T10:40:00Z,27.3620,-90.1810,47.2,75.0,11144222
Anadarko,ioos:station:wmo:42379:1,2020-01-02T11:00:00Z,27.3620,-90.1810,47.2,75.1,11144222
Anadarko,ioos:station:wmo:42379:1,2020-01-02T11:20:00Z,27.3620,-90.1810,47.2,75.2,11144222
Anadarko,ioos:station:wmo:42379:1,2020-01-02T11:40:00Z,27.3620,-90.1810,47.2,75.1,11144222
Anadarko,ioos:station:wmo:42379:1,2020-01-02T12:00:00Z,27.3620,-90.1810,47.2,75.1,11144222
Anadarko,ioos:station:wmo:42379:1,2020-01-02T12:20:00Z,27.3620,-90.1810,47.2,75.1,11144222
Anadarko,ioos:station:wmo:42379:1,2020-01-02T12:40:00Z,27.3620,-90.1810,47.2,75.0,11144222
Anadarko,ioos:station:wmo:42379:1,2020-01-02T13:00:00Z,27.3620,-90.1810,47.2,74.8,11144222
Anadarko,ioos:station:wmo:42379:1,2020-01-02T13:20:00Z,27.3620,-90.1810,47.2,75.0,11144222
Anadarko,ioos:station:wmo:42379:1,2020-01-02T13:40:00Z,27.3620,-90.1810,47.2,75.0,11144222
Anadarko,ioos:station:wmo:42379:1,2020-01-02T14:00:00Z,27.3620,-90.1810,47.2,74.8,11144222
Anadarko,ioos:station:wmo:42379:1,2020-01-02T14:20:00Z,27.3620,-90.1810,47.2,74.8,11144222
Anadarko,ioos:station:wmo:42379:1,2020-01-02T14:40:00Z,27.3620,-90.1810,47.2,75.1,11144222
Anadarko,ioos:station:wmo:42379:1,2020-01-02T15:00:00Z,27.3620,-90.1810,47.2,75.1,11144222
Anadarko,ioos:station:wmo:42379:1,2020-01-02T15:20:00Z,27.3620,-90.1810,47.2,75.2,11144222
Anadarko,ioos:station:wmo:42379:1,2020-01-02T15:40:00Z,27.3620,-90.1810,47.2,75.1,11144222
Anadarko,ioos:station:wmo:42379:1,2020-01-02T16:00:00Z,27.3620,-90.1810,47.2,75.1,11144222
Anadarko,ioos:station:wmo:42379:1,2020-01-02T16:20:00Z,27.3620,-90.1810,47.2,75.1,11144222
Anadarko,ioos:station:wmo:42379:1,2020-01-02T16:40:00Z,27.3620,-90.1810,47.2,75.1,11144222
Anadarko,ioos:station:wmo:42379:1,2020-01-02T16:59:00Z,27.3620,-90.1810,47.2,75.1,11144222
Anadarko,ioos:station:wmo:42379:1,2020-01-02T17:19:00Z,27.3620,-90.1810,47.2,75.1,11144222
Anadarko,ioos:station:wmo:42379:1,2020-01-02T17:39:00Z,27.3620,-90.1810,47.2,75.1,11144222
Anadarko,ioos:station:wmo:42379:1,2020-01-02T17:59:00Z,27.3620,-90.1810,47.2,75.2,11144222
Anadarko,ioos:station:wmo:42379:1,2020-01-02T18:19:00Z,27.3620,-90.1810,47.2,75.2,11144222
Anadarko,ioos:station:wmo:42379:1,2020-01-02T18:39:00Z,27.3620,-90.1810,47.2,75.2,11144222
Anadarko,ioos:station:wmo:42379:1,2020-01-02T18:58:00Z,27.3620,-90.1810,47.2,75.2,11144222
Anadarko,ioos:station:wmo:42379:1,2020-01-02T19:18:00Z,27.3620,-90.1810,47.2,75.1,11144222
Anadarko,ioos:station:wmo:42379:1,2020-01-02T19:37:00Z,27.3620,-90.1810,47.2,75.1,11144222
Anadarko,ioos:station:wmo:42379:1,2020-01-02T19:57:00Z,27.3620,-90.1810,47.2,75.2,11144222
Anadarko,ioos:station:wmo:42379:1,2020-01-02T20:17:00Z,27.3620,-90.1810,47.2,75.3,11144222
Anadarko,ioos:station:wmo:42379:1,2020-01-02T20:36:00Z,27.3620,-90.1810,47.2,75.2,11144222
Anadarko,ioos:station:wmo:42379:1,2020-01-02T20:55:00Z,27.3620,-90.1810,47.2,75.4,11144222
Anadarko,ioos:station:wmo:42379:1,2020-01-02T21:15:00Z,27.3620,-90.1810,47.2,75.2,11144222
Anadarko,ioos:station:wmo:42379:1,2020-01-02T21:35:00Z,27.3620,-90.1810,47.2,75.2,11144222
Anadarko,ioos:station:wmo:42379:1,2020-01-02T21:54:00Z,27.3620,-90.1810,47.2,75.3,11144222
Anadarko,ioos:station:wmo:42379:1,2020-01-02T22:14:00Z,27.3620,-90.1810,47.2,75.2,11144222
Anadarko,ioos:station:wmo:42379:1,2020-01-02T22:34:00Z,27.3620,-90.1810,47.2,75.3,11144222
Anadarko,ioos:station:wmo:42379:1,2020-01-02T22:54:00Z,27.3620,-90.1810,47.2,75.3,11144222
Anadarko,ioos:station:wmo:42379:1,2020-01-02T23:14:00Z,27.3620,-90.1810,47.2,75.2,11144222
Anadarko,ioos:station:wmo:42379:1,2020-01-02T23:34:00Z,27.3620,-90.1810,47.2,75.2,11144222
Anadarko,ioos:station:wmo:42379:1,2020-01-02T23:54:00Z,27.3620,-90.1810,47.2,75.2,11144222
Anadarko,ioos:station:wmo:42379:1,2020-01-03T00:14:00Z,27.3620,-90.1810,47.2,75.2,11144222
Anadarko,ioos:station:wmo:42379:1,2020-01-03T00:34:00Z,27.3620,-90.1810,47.2,75.3,11144222
Anadarko,ioos:station:wmo:42379:1,2020-01-03T00:54:00Z,27.3620,-90.1810,47.2,75.2,11144222
Anadarko,ioos:station:wmo:42379:1,2020-01-03T01:14:00Z,27.3620,-90.1810,47.2,75.3,11144222
Anadarko,ioos:station:wmo:42379:1,2020-01-03T01:34:00Z,27.3620,-90.1810,47.2,75.1,11144222
Anadarko,ioos:station:wmo:42379:1,2020-01-03T01:54:00Z,27.3620,-90.1810,47.2,75.3,11144222
Anadarko,ioos:station:wmo:42379:1,2020-01-03T02:14:00Z,27.3620,-90.1810,47.2,75.4,11144222
Anadarko,ioos:station:wmo:42379:1,2020-01-03T02:34:00Z,27.3620,-90.1810,47.2,75.2,11144222
Anadarko,ioos:station:wmo:42379:1,2020-01-03T02:54:00Z,27.3620,-90.1810,47.2,75.4,11144222
Anadarko,ioos:station:wmo:42379:1,2020-01-03T03:14:00Z,27.3620,-90.1810,47.2,75.3,11144222
Anadarko,ioos:station:wmo:42379:1,2020-01-03T03:34:00Z,27.3620,-90.1810,47.2,75.3,11144222
Anadarko,ioos:station:wmo:42379:1,2020-01-03T03:54:00Z,27.3620,-90.1810,47.2,75.3,11144222
Anadarko,ioos:station:wmo:42379:1,2020-01-03T04:14:00Z,27.3620,-90.1810,47.2,75.3,11144222
Anadarko,ioos:station:wmo:42379:1,2020-01-03T04:34:00Z,27.3620,-90.1810,47.2,75.2,11144222
Anadarko,ioos:station:wmo:42379:1,2020-01-03T04:54:00Z,27.3620,-90.1810,47.2,75.3,11144222
Anadarko,ioos:station:wmo:42379:1,2020-01-03T05:14:00Z,27.3620,-90.1810,47.2,75.0,11144222
Anadarko,ioos:station:wmo:42379:1,2020-01-03T05:33:00Z,27.3620,-90.1810,47.2,75.0,11144222
Anadarko,ioos:station:wmo:42379:1,2020-01-03T05:53:00Z,27.3620,-90.1810,47.2,75.4,11144222
Anadarko,ioos:station:wmo:42379:1,2020-01-03T06:13:00Z,27.3620,-90.1810,47.2,75.5,11144222
Anadarko,ioos:station:wmo:42379:1,2020-01-03T06:33:00Z,27.3620,-90.1810,47.2,75.4,11144222
Anadarko,ioos:station:wmo:42379:1,2020-01-03T06:53:00Z,27.3620,-90.1810,47.2,75.5,11144222
Anadarko,ioos:station:wmo:42379:1,2020-01-03T07:12:00Z,27.3620,-90.1810,47.2,75.5,11144222
Anadarko,ioos:station:wmo:42379:1,2020-01-03T07:31:00Z,27.3620,-90.1810,47.2,75.1,11144222
Anadarko,ioos:station:wmo:42379:1,2020-01-03T07:51:00Z,27.3620,-90.1810,47.2,75.2,11144222
Anadarko,ioos:station:wmo:42379:1,2020-01-03T08:11:00Z,27.3620,-90.1810,47.2,75.4,11144222
Anadarko,ioos:station:wmo:42379:1,2020-01-03T08:30:00Z,27.3620,-90.1810,47.2,75.5,11144222
Anadarko,ioos:station:wmo:42379:1,2020-01-03T08:49:00Z,27.3620,-90.1810,47.2,75.6,11144222
Anadarko,ioos:station:wmo:42379:1,2020-01-03T09:09:00Z,27.3620,-90.1810,47.2,75.3,11144222
Anadarko,ioos:station:wmo:42379:1,2020-01-03T09:29:00Z,27.3620,-90.1810,47.2,75.5,11144222
Anadarko,ioos:station:wmo:42379:1,2020-01-03T09:48:00Z,27.3620,-90.1810,47.2,75.4,11144222
Anadarko,ioos:station:wmo:42379:1,2020-01-03T10:08:00Z,27.3620,-90.1810,47.2,75.3,11144222
Anadarko,ioos:station:wmo:42379:1,2020-01-03T10:28:00Z,27.3620,-90.1810,47.2,75.4,11144222
Anadarko,ioos:station:wmo:42379:1,2020-01-03T10:48:00Z,27.3620,-90.1810,47.2,75.4,11144222
Anadarko,ioos:station:wmo:42379:1,2020-01-03T11:08:00Z,27.3620,-90.1810,47.2,75.5,11144222
Anadarko,ioos:station:wmo:42379:1,2020-01-03T11:28:00Z,27.3620,-90.1810,47.2,75.5,11144222
Anadarko,ioos:station:wmo:42379:1,2020-01-03T11:48:00Z,27.3620,-90.1810,47.2,75.6,11144222
Anadarko,ioos:station:wmo:42379:1,2020-01-03T12:08:00Z,27.3620,-90.1810,47.2,75.6,11144222
Anadarko,ioos:station:wmo:42379:1,2020-01-03T12:28:00Z,27.3620,-90.1810,47.2,75.3,11144222
Anadarko,ioos:station:wmo:42379:1,2020-01-03T12:48:00Z,27.3620,-90.1810,47.2,75.6,11144222
Anadarko,ioos:station:wmo:42379:1,2020-01-03T13:08:00Z,27.3620,-90.1810,47.2,75.6,11144222
Anadarko,ioos:station:wmo:42379:1,2020-01-03T13:28:00Z,27.3620,-90.1810,47.2,75.7,11144222
Anadarko,ioos:station:wmo:42379:1,2020-01-03T13:48:00Z,27.3620,-90.1810,47.2,75.6,11144222
Anadarko,ioos:station:wmo:42379:1,2020-01-03T14:08:00Z,27.3620,-90.1810,47.2,75.8,11144222
Anadarko,ioos:station:wmo:42379:1,2020-01-03T14:28:00Z,27.3620,-90.1810,47.2,75.9,11144222
Anadarko,ioos:station:wmo:42379:1,2020-01-03T14:48:00Z,27.3620,-90.1810,47.2,75.6,11144222
Anadarko,ioos:station:wmo:42379:1,2020-01-03T15:07:00Z,27.3620,-90.1810,47.2,75.4,11144222
Anadarko,ioos:station:wmo:42379:1,2020-01-03T15:27:00Z,27.3620,-90.1810,47.2,75.7,11144222
Anadarko,ioos:station:wmo:42379:1,2020-01-03T15:47:00Z,27.3620,-90.1810,47.2,75.5,11144222
Anadarko,ioos:station:wmo:42379:1,2020-01-03T16:07:00Z,27.3620,-90.1810,47.2,75.7,11144222
Anadarko,ioos:station:wmo:42379:1,2020-01-03T16:27:00Z,27.3620,-90.1810,47.2,75.5,11144222
Anadarko,ioos:station:wmo:42379:1,2020-01-03T16:47:00Z,27.3620,-90.1810,47.2,75.7,11144222
Anadarko,ioos:station:wmo:42379:1,2020-01-03T17:07:00Z,27.3620,-90.1810,47.2,75.8,11144222
Anadarko,ioos:station:wmo:42379:1,2020-01-03T17:27:00Z,27.3620,-90.1810,47.2,75.6,11144222
Anadarko,ioos:station:wmo:42379:1,2020-01-03T17:47:00Z,27.3620,-90.1810,47.2,75.7,11144222
Anadarko,ioos:station:wmo:42379:1,2020-01-03T18:07:00Z,27.3620,-90.1810,47.2,75.7,11144222
Anadarko,ioos:station:wmo:42379:1,2020-01-03T18:27:00Z,27.3620,-90.1810,47.2,75.3,11144222
Anadarko,ioos:station:wmo:42379:1,2020-01-03T18:47:00Z,27.3620,-90.1810,47.2,75.6,11144222
Anadarko,ioos:station:wmo:42379:1,2020-01-03T19:07:00Z,27.3620,-90.1810,47.2,75.5,11144222
Anadarko,ioos:station:wmo:42379:1,2020-01-03T19:27:00Z,27.3620,-90.1810,47.2,75.4,11144222
Anadarko,ioos:station:wmo:42379:1,2020-01-03T19:47:00Z,27.3620,-90.1810,47.2,75.1,11144222
Anadarko,ioos:station:wmo:42379:1,2020-01-03T20:07:00Z,27.3620,-90.1810,47.2,75.2,11144222
Anadarko,ioos:station:wmo:42379:1,2020-01-03T20:27:00Z,27.3620,-90.1810,47.2,75.4,11144222
Anadarko,ioos:station:wmo:42379:1,2020-01-03T20:47:00Z,27.3620,-90.1810,47.2,75.4,11144222
Anadarko,ioos:station:wmo:42379:1,2020-01-03T21:06:00Z,27.3620,-90.1810,47.2,75.4,11144222
Anadarko,ioos:station:wmo:42379:1,2020-01-03T21:26:00Z,27.3620,-90.1810,47.2,75.2,11144222
Anadarko,ioos:station:wmo:42379:1,2020-01-03T21:46:00Z,27.3620,-90.1810,47.2,75.3,11144222
Anadarko,ioos:station:wmo:42379:1,2020-01-03T22:06:00Z,27.3620,-90.1810,47.2,75.6,11144222
Anadarko,ioos:station:wmo:42379:1,2020-01-03T22:26:00Z,27.3620,-90.1810,47.2,75.7,11144222
Anadarko,ioos:station:wmo:42379:1,2020-01-03T22:46:00Z,27.3620,-90.1810,47.2,75.7,11144222
Anadarko,ioos:station:wmo:42379:1,2020-01-03T23:06:00Z,27.3620,-90.1810,47.2,76.0,11144222
Anadarko,ioos:station:wmo:42379:1,2020-01-03T23:26:00Z,27.3620,-90.1810,47.2,75.6,11144222
Anadarko,ioos:station:wmo:42379:1,2020-01-03T23:46:00Z,27.3620,-90.1810,47.2,75.7,11144222
Anadarko,ioos:station:wmo:42379:1,2020-01-04T00:06:00Z,27.3620,-90.1810,47.2,76.1,11144222
Anadarko,ioos:station:wmo:42379:1,2020-01-04T00:26:00Z,27.3620,-90.1810,47.2,76.0,11144222
Anadarko,ioos:station:wmo:42379:1,2020-01-04T00:46:00Z,27.3620,-90.1810,47.2,76.1,11144222
Anadarko,ioos:station:wmo:42379:1,2020-01-04T01:06:00Z,27.3620,-90.1810,47.2,76.0,11144222
Anadarko,ioos:station:wmo:42379:1,2020-01-04T01:26:00Z,27.3620,-90.1810,47.2,76.1,11144222
Anadarko,ioos:station:wmo:42379:1,2020-01-04T01:46:00Z,27.3620,-90.1810,47.2,76.2,11144222
Anadarko,ioos:station:wmo:42379:1,2020-01-04T02:06:00Z,27.3620,-90.1810,47.2,76.2,11144222
Anadarko,ioos:station:wmo:42379:1,2020-01-04T02:26:00Z,27.3620,-90.1810,47.2,76.3,11144222
Anadarko,ioos:station:wmo:42379:1,2020-01-04T02:46:00Z,27.3620,-90.1810,47.2,76.2,11144222
Anadarko,ioos:station:wmo:42379:1,2020-01-04T03:06:00Z,27.3620,-90.1810,47.2,75.9,11144222
Anadarko,ioos:station:wmo:42379:1,2020-01-04T03:26:00Z,27.3620,-90.1810,47.2,76.0,11144222
Anadarko,ioos:station:wmo:42379:1,2020-01-04T03:46:00Z,27.3620,-90.1810,47.2,76.1,11144222
Anadarko,ioos:station:wmo:42379:1,2020-01-04T04:06:00Z,27.3620,-90.1810,47.2,76.1,11144222
Anadarko,ioos:station:wmo:42379:1,2020-01-04T04:26:00Z,27.3620,-90.1810,47.2,76.0,11144222
Anadarko,ioos:station:wmo:42379:1,2020-01-04T04:46:00Z,27.3620,-90.1810,47.2,76.0,11144222
Anadarko,ioos:station:wmo:42379:1,2020-01-04T05:06:00Z,27.3620,-90.1810,47.2,76.0,11144222
Anadarko,ioos:station:wmo:42379:1,2020-01-04T05:26:00Z,27.3620,-90.1810,47.2,76.0,11144222
Anadarko,ioos:station:wmo:42379:1,2020-01-04T05:46:00Z,27.3620,-90.1810,47.2,76.1,11144222
Anadarko,ioos:station:wmo:42379:1,2020-01-04T06:06:00Z,27.3620,-90.1810,47.2,76.1,11144222
Anadarko,ioos:station:wmo:42379:1,2020-01-04T06:26:00Z,27.3620,-90.1810,47.2,76.0,11144222
Anadarko,ioos:station:wmo:42379:1,2020-01-04T06:46:00Z,27.3620,-90.1810,47.2,76.0,11144222
Anadarko,ioos:station:wmo:42379:1,2020-01-04T07:06:00Z,27.3620,-90.1810,47.2,76.0,11144222
Anadarko,ioos:station:wmo:42379:1,2020-01-04T07:26:00Z,27.3620,-90.1810,47.2,76.1,11144222
Anadarko,ioos:station:wmo:42379:1,2020-01-04T07:46:00Z,27.3620,-90.1810,47.2,80.5,11144222
Anadarko,ioos:station:wmo:42379:1,2020-01-04T08:06:00Z,27.3620,-90.1810,47.2,80.3,11144222
Anadarko,ioos:station:wmo:42379:1,2020-01-04T08:26:00Z,27.3620,-90.1810,47.2,80.3,11144222
Anadarko,ioos:station:wmo:42379:1,2020-01-04T08:46:00Z,27.3620,-90.1810,47.2,80.3,11144222
Anadarko,ioos:station:wmo:42379:1,2020-01-04T09:06:00Z,27.3620,-90.1810,47.2,80.3,11144222
Anadarko,ioos:station:wmo:42379:1,2020-01-04T09:26:00Z,27.3620,-90.1810,47.2,75.3,11144222
Anadarko,ioos:station:wmo:42379:1,2020-01-04T09:46:00Z,27.3620,-90.1810,47.2,80.3,11144222
Anadarko,ioos:station:wmo:42379:1,2020-01-04T10:06:00Z,27.3620,-90.1810,47.2,80.3,11144222
Anadarko,ioos:station:wmo:42379:1,2020-01-04T10:26:00Z,27.3620,-90.1810,47.2,80.1,11144222
Anadarko,ioos:station:wmo:42379:1,2020-01-04T10:46:00Z,27.3620,-90.1810,47.2,80.1,11144222
Anadarko,ioos:station:wmo:42379:1,2020-01-04T11:06:00Z,27.3620,-90.1810,47.2,80.3,11144222
Anadarko,ioos:station:wmo:42379:1,2020-01-04T11:26:00Z,27.3620,-90.1810,47.2,80.1,11144222
Anadarko,ioos:station:wmo:42379:1,2020-01-04T11:46:00Z,27.3620,-90.1810,47.2,79.9,11144222
Anadarko,ioos:station:wmo:42379:1,2020-01-04T12:06:00Z,27.3620,-90.1810,47.2,80.1,11144222
Anadarko,ioos:station:wmo:42379:1,2020-01-04T12:26:00Z,27.3620,-90.1810,47.2,80.0,11144222
Anadarko,ioos:station:wmo:42379:1,2020-01-04T12:46:00Z,27.3620,-90.1810,47.2,79.8,11144222
Anadarko,ioos:station:wmo:42379:1,2020-01-04T13:06:00Z,27.3620,-90.1810,47.2,79.9,11144222
Anadarko,ioos:station:wmo:42379:1,2020-01-04T13:26:00Z,27.3620,-90.1810,47.2,79.8,11144222
Anadarko,ioos:station:wmo:42379:1,2020-01-04T13:46:00Z,27.3620,-90.1810,47.2,79.9,11144222